Location: Unspecified
(0.0000°N, 0.0000°E)
Time: 16:00:31
(UTC+00:00)

Tiros 1 despin weight - Visible Passes

Search period start: 21 June 2018 00:00
Search period end: 01 July 2018 00:00
Orbit: 594 x 644 km, 48.2° (Epoch: 20 June)

Date Brightness Start Highest point End Pass type
(mag) Time Alt. Az. Time Alt. Az. Time Alt. Az.
21 Jun ? 04:29:49 10° N 04:33:35 25° NE 04:37:19 10° ESE visible
22 Jun ? 04:45:44 10° NNW 04:50:19 68° NE 04:54:52 10° SE visible
23 Jun ? 03:23:01 10° NNE 03:25:35 15° NE 03:28:08 10° E visible
23 Jun ? 05:02:39 10° WNW 05:07:02 42° SW 05:11:22 10° SSE visible
24 Jun ? 03:43:30 32° E 03:43:30 32° E 03:46:37 10° ESE visible
24 Jun ? 05:20:54 10° W 05:23:46 16° SW 05:26:39 10° S visible
25 Jun ? 04:03:05 13° SE 04:03:05 13° SE 04:03:40 10° SE visible
